Regional Weather Roundup
Issued by NWS

Home | Current Version | Previous Version | Graphics & Text | Print | Product List | Glossary On
Versions: 1 2 3 4 5 6 7 8 9 10 11 12 13 14 15 16 17 18 19 20 21 22 23 24 25 26 27
000
ASUS43 KDMX 172307
RWRIA

WEATHER ROUNDUP FOR IOWA
NATIONAL WEATHER SERVICE DES MOINES IA
600 PM CDT THU APR 17 2014

NOTE: "FAIR" INDICATES FEW OR NO CLOUDS BELOW 12,000 FEET WITH NO
SIGNIFICANT WEATHER AND/OR OBSTRUCTIONS TO VISIBILITY.

* - THESE STATIONS ARE NOT NWS STATIONS...THUS NOT UNDER NWS
QUALITY CONTROL.  THEY ALSO DO NOT REPORT WEATHER SUCH
AS PRECIPITATION OR FOG.

IAZ001>003-012>014-020>022-031>034-043>046-180000-
   NORTHWEST IOWA

CITY           SKY/WX    TMP DP  RH WIND       PRES   REMARKS
CARROLL *      SUNNY     52  25  35 N8        30.25R
CHEROKEE *     SUNNY     54  27  35 CALM      30.26S
DENISON *      SUNNY     52  23  32 CALM      30.23S
LE MARS *      SUNNY     50  23  34 NW5       30.26S
ORANGE CITY *  SUNNY     48  23  37 CALM      30.25F
SHELDON *      SUNNY     46  25  42 NE6       30.26R
SIOUX CITY     MOSUNNY   52  24  33 NE3       30.26S
SPENCER        SUNNY     46  28  49 N7        30.27S
STORM LAKE *   SUNNY     48  27  43 NE8       30.26S
$$

IAZ055>058-069>071-079>083-090>094-180000-
   SOUTHWEST IOWA

CITY           SKY/WX    TMP DP  RH WIND       PRES   REMARKS
ATLANTIC *     SUNNY     54  25  32 CALM      30.24S
AUDUBON *      SUNNY     54  16  22 N5        30.25S
CLARINDA *     SUNNY     55  28  35 CALM      30.26S
COUNCIL BLFS * SUNNY     54  27  35 CALM      30.24R
CRESTON *      SUNNY     54  27  35 VRB5      30.24S
HARLAN  *      SUNNY     54  23  30 NW5       30.28R
LAMONI         SUNNY     54  31  41 CALM      30.24S
RED OAK *      SUNNY     54  27  35 S3        30.24S
SHENANDOAH *   SUNNY     55  28  35 N5        30.25S
$$

IAZ047>049-059>061-072>074-084-180000-
   CENTRAL IOWA

CITY           SKY/WX    TMP DP  RH WIND       PRES   REMARKS
AMES           SUNNY     52  28  39 N9        30.24F
ANKENY *       SUNNY     54  30  40 VRB7      30.25S
CHARITON *     SUNNY     52  32  46 N7        30.26R
DES MOINES     MOSUNNY   55  29  36 NE5       30.25S
GRINNELL*      SUNNY     50  32  50 NW6       30.26R
KNOXVILLE *    SUNNY     52  30  43 N8        30.25S
MARSHALLTOWN   SUNNY     49  32  52 N12       30.25S
NEWTON *       SUNNY     50  32  50 NE8       30.26S
PELLA *        SUNNY     54  32  43 N8        30.26S
PERRY *          N/A     54  21  28 N5        30.25R
$$

IAZ004>006-015-016-023>025-035-036-180000-
   NORTH CENTRAL IOWA

CITY           SKY/WX    TMP DP  RH WIND       PRES   REMARKS
ALGONA *       SUNNY     43  30  61 N9        30.28S
CLARION *      SUNNY     45  30  57 N10       30.27R
ESTHERVILLE    MOSUNNY   43  30  60 MISG      30.26F
FORT DODGE *   SUNNY     48  28  46 NE8       30.27S
MASON CITY     SUNNY     42  30  62 N9        30.28S
FOREST CITY *  MOSUNNY   41  32  70 N7        30.27S
IOWA FALLS *     N/A     46  32  57 N9        30.27S
$$

IAZ007>011-017>019-026>030-037>042-050>054-066-180000-
   NORTHEAST IOWA

CITY           SKY/WX    TMP DP  RH WIND       PRES   REMARKS
CEDAR RAPIDS   SUNNY     50  32  50 NW8       30.23S
CHARLES CITY * SUNNY     41  32  70 N10       30.28S
CLINTON *      MOSUNNY   55  36  47 NW8       30.25R
DECORAH *      CLOUDY    39  32  75 N12       30.26S WCI  32
DUBUQUE        SUNNY     51  36  56 NW10      30.22R
MONTICELLO *   SUNNY     52  36  54 NW9       30.24R
OELWEIN *      SUNNY    N/A N/A N/A N13G18    30.26S
WATERLOO       SUNNY     45  31  58 N12       30.27R
$$

IAZ064-065-067-068-078-180000-
   EAST CENTRAL IOWA

CITY           SKY/WX    TMP DP  RH WIND       PRES   REMARKS
DAVENPORT      MOSUNNY   55  35  47 W8        30.24R
IOWA CITY      SUNNY     51  35  54 W9        30.26S
MT. PLEASANT * PTSUNNY   54  32  43 W3        30.25S
MUSCATINE *    SUNNY     54  34  47 NW7       30.25S
QUAD CITIES    PTSUNNY   54  34  46 W10       30.23S
$$

IAZ062-063-075>077-085>089-095>099-180000-
   SOUTHEAST IOWA

CITY           SKY/WX    TMP DP  RH WIND       PRES   REMARKS
BURLINGTON     CLOUDY    52  36  54 S7        30.25R
FAIRFIELD *    SUNNY     52  32  46 CALM      30.26R
FORT MADISON * SUNNY     54  36  50 CALM      30.26S
KEOKUK *       SUNNY     52  36  54 CALM      30.26S
OSKALOOSA *      N/A     52  32  46 CALM      30.27R
CENTERVILLE *  SUNNY     52  32  46 W3        30.27R
OTTUMWA        SUNNY     52  31  44 N7        30.25R
WASHINGTON *   SUNNY     52  34  50 VRB6      30.25S
$$

ABBREVIATIONS USED IN REMARKS
   TC - TEMPERATURES IN CELSIUS
  WCI - WIND CHILL INDEX
   HX - HEAT INDEX
  VSB - VISIBILITY
$$




USA.gov is the U.S. government's official web portal to all federal, state and local government web resources and services.